timestamp,wind_dir_avg,wind_spd_avg,wind_spd_max_dir,wind_spd_gust,battery_voltage,lat,long
2023-10-07 00:04:01+00:00,354.0,2.35,353.0,2.56,12.41,47.59359,-54.27349
2023-10-07 00:14:01+00:00,2.0,2.56,0.0,2.93,12.41,47.59359,-54.27349
2023-10-07 00:24:01+00:00,40.0,2.6,39.0,2.77,12.41,47.59359,-54.27349
2023-10-07 00:34:01+00:00,57.0,3.54,55.0,3.7,12.41,47.59359,-54.27349
2023-10-07 00:44:01+00:00,57.0,2.44,56.0,2.8,12.41,47.59359,-54.27349
2023-10-07 00:54:01+00:00,61.0,1.63,65.0,1.8,12.41,47.59359,-54.27349
2023-10-07 01:04:01+00:00,52.0,1.33,53.0,1.52,12.41,47.59359,-54.27349
2023-10-07 01:14:01+00:00,85.0,1.32,79.0,1.7,12.41,47.59359,-54.27349
2023-10-07 01:24:01+00:00,81.0,1.6,86.0,1.88,12.41,47.59359,-54.27349
2023-10-07 01:34:01+00:00,81.0,1.36,84.0,2.28,12.41,47.59359,-54.27349
2023-10-07 01:44:01+00:00,69.0,1.49,71.0,1.69,12.41,47.59359,-54.27349
2023-10-07 01:54:01+00:00,88.0,0.66,86.0,0.94,12.41,47.59359,-54.27349
2023-10-07 02:04:01+00:00,112.0,1.19,110.0,1.61,12.41,47.59359,-54.27349
2023-10-07 02:14:01+00:00,83.0,0.68,112.0,1.01,12.33,47.59359,-54.27349
2023-10-07 02:24:01+00:00,26.0,1.04,17.0,1.28,12.33,47.59359,-54.27349
2023-10-07 02:34:01+00:00,12.0,2.09,12.0,2.33,12.33,47.59359,-54.27349
2023-10-07 02:44:01+00:00,10.0,1.88,10.0,2.08,12.33,47.59359,-54.27349
2023-10-07 02:54:01+00:00,34.0,0.69,25.0,0.98,12.33,47.59359,-54.27349
2023-10-07 03:04:01+00:00,37.0,0.92,40.0,1.16,12.33,47.59359,-54.27349
2023-10-07 03:14:01+00:00,54.0,1.52,51.0,1.86,12.33,47.59359,-54.27349
2023-10-07 03:24:01+00:00,14.0,0.31,20.0,0.45,12.33,47.59359,-54.27349
2023-10-07 03:34:01+00:00,308.0,1.08,314.0,1.22,12.33,47.59359,-54.27349
2023-10-07 03:44:01+00:00,8.0,1.0,9.0,1.15,12.33,47.59359,-54.27349
2023-10-07 03:54:01+00:00,29.0,1.02,34.0,1.14,12.33,47.59359,-54.27349
2023-10-07 04:04:01+00:00,41.0,1.04,56.0,1.42,12.33,47.59359,-54.27349
2023-10-07 04:14:00+00:00,55.0,0.49,64.0,0.6,12.33,47.59359,-54.27349
2023-10-07 04:24:00+00:00,90.0,0.36,77.0,0.49,12.33,47.59359,-54.27349
2023-10-07 04:34:00+00:00,62.0,0.88,61.0,0.99,12.33,47.59359,-54.27349
2023-10-07 04:44:00+00:00,60.0,0.59,53.0,0.78,12.33,47.59359,-54.27349
2023-10-07 04:54:00+00:00,116.0,0.22,129.0,0.37,12.33,47.59359,-54.27349
2023-10-07 05:04:00+00:00,171.0,1.19,170.0,1.31,12.33,47.59359,-54.27349
2023-10-07 05:14:00+00:00,143.0,1.69,142.0,1.75,12.33,47.59359,-54.27349
2023-10-07 05:24:00+00:00,154.0,1.6,152.0,1.71,12.33,47.59359,-54.27349
2023-10-07 05:34:00+00:00,163.0,1.33,164.0,1.41,12.33,47.59359,-54.27349
2023-10-07 05:44:00+00:00,143.0,1.03,141.0,1.16,12.33,47.59359,-54.27349
2023-10-07 05:54:00+00:00,163.0,1.38,163.0,1.45,12.33,47.59359,-54.27349
2023-10-07 06:04:00+00:00,215.0,0.63,217.0,0.72,12.33,47.59359,-54.27349
2023-10-07 06:14:00+00:00,170.0,0.42,168.0,0.54,12.25,47.59359,-54.27349
2023-10-07 06:24:00+00:00,187.0,0.65,191.0,0.7,12.25,47.59359,-54.27349
2023-10-07 06:34:00+00:00,215.0,0.61,217.0,0.67,12.25,47.59359,-54.27349
2023-10-07 06:44:00+00:00,231.0,0.54,235.0,0.63,12.25,47.59359,-54.27349
2023-10-07 06:54:00+00:00,264.0,0.32,266.0,0.37,12.25,47.59359,-54.27349
2023-10-07 07:04:00+00:00,100.0,0.58,97.0,0.69,12.25,47.59359,-54.27349
2023-10-07 07:14:01+00:00,105.0,0.62,101.0,0.71,12.25,47.59359,-54.27349
2023-10-07 07:24:01+00:00,106.0,0.39,110.0,0.58,12.25,47.59359,-54.27349
2023-10-07 07:34:01+00:00,94.0,0.71,97.0,1.03,12.25,47.59359,-54.27349
2023-10-07 07:44:01+00:00,138.0,0.6,140.0,0.66,12.25,47.59359,-54.27349
2023-10-07 07:54:01+00:00,222.0,0.19,236.0,0.24,12.25,47.59359,-54.27349
2023-10-07 08:04:01+00:00,194.0,0.35,195.0,0.44,12.25,47.59359,-54.27349
2023-10-07 08:14:00+00:00,138.0,0.53,158.0,0.75,12.17,47.59359,-54.27349
2023-10-07 08:24:00+00:00,157.0,1.48,159.0,1.54,12.17,47.59359,-54.27349
2023-10-07 08:34:00+00:00,157.0,1.43,160.0,1.48,12.17,47.59359,-54.27349
2023-10-07 08:44:00+00:00,151.0,1.1,149.0,1.2,12.17,47.59359,-54.27349
2023-10-07 08:54:00+00:00,150.0,0.8,151.0,0.87,12.17,47.59359,-54.27349
2023-10-07 09:04:00+00:00,180.0,1.06,179.0,1.1,12.17,47.59359,-54.27349
2023-10-07 09:14:01+00:00,206.0,0.96,202.0,1.12,12.17,47.59359,-54.27349
2023-10-07 09:24:01+00:00,189.0,1.12,193.0,1.27,12.17,47.59359,-54.27349
2023-10-07 09:34:01+00:00,189.0,1.52,187.0,1.69,12.17,47.59359,-54.27349
2023-10-07 09:44:01+00:00,192.0,1.29,196.0,1.36,12.17,47.59359,-54.27349
2023-10-07 09:54:01+00:00,193.0,1.08,194.0,1.2,12.17,47.59359,-54.27349
2023-10-07 10:04:01+00:00,207.0,1.58,210.0,1.71,12.17,47.59359,-54.27349
2023-10-07 10:14:01+00:00,207.0,1.4,217.0,1.58,12.17,47.59359,-54.27349
2023-10-07 10:24:01+00:00,228.0,1.69,235.0,2.11,12.17,47.59359,-54.27349
2023-10-07 10:34:01+00:00,239.0,2.01,238.0,2.32,12.17,47.59359,-54.27349
2023-10-07 10:44:01+00:00,227.0,1.99,240.0,2.5,12.17,47.59359,-54.27349
2023-10-07 10:54:01+00:00,229.0,2.15,230.0,2.59,12.17,47.59359,-54.27349
2023-10-07 11:04:01+00:00,232.0,2.36,233.0,2.62,12.17,47.59359,-54.27349
2023-10-07 11:14:01+00:00,213.0,1.25,232.0,1.95,12.41,47.59359,-54.27349
2023-10-07 11:24:01+00:00,219.0,0.95,227.0,1.2,12.41,47.59359,-54.27349
2023-10-07 11:34:01+00:00,236.0,0.58,246.0,0.89,12.41,47.59359,-54.27349
2023-10-07 11:44:01+00:00,252.0,0.88,250.0,1.19,12.41,47.59359,-54.27349
2023-10-07 11:54:01+00:00,218.0,0.66,238.0,0.95,12.41,47.59359,-54.27349
2023-10-07 12:04:01+00:00,245.0,1.44,247.0,1.6,12.41,47.59359,-54.27349
2023-10-07 12:14:00+00:00,303.0,0.98,305.0,1.25,13.05,47.59359,-54.27349
2023-10-07 12:24:00+00:00,276.0,0.35,254.0,0.63,13.05,47.59359,-54.27349
2023-10-07 12:34:00+00:00,244.0,0.39,223.0,0.62,13.05,47.59359,-54.27349
2023-10-07 12:44:00+00:00,129.0,0.83,120.0,1.09,13.05,47.59359,-54.27349
2023-10-07 12:54:00+00:00,121.0,1.09,120.0,1.43,13.05,47.59359,-54.27349
2023-10-07 13:04:00+00:00,0.0,0.17,327.0,0.56,13.05,47.59359,-54.27349
2023-10-07 13:14:01+00:00,12.0,0.71,19.0,0.9,13.21,47.59359,-54.27349
2023-10-07 13:24:01+00:00,112.0,2.15,115.0,2.44,13.21,47.59359,-54.27349
2023-10-07 13:34:01+00:00,272.0,0.53,259.0,0.73,13.21,47.59359,-54.27349
2023-10-07 13:44:01+00:00,313.0,1.03,310.0,1.24,13.21,47.59359,-54.27349
2023-10-07 13:54:01+00:00,53.0,1.15,54.0,1.46,13.21,47.59359,-54.27349
2023-10-07 14:04:01+00:00,39.0,1.0,42.0,1.17,13.21,47.59359,-54.27349
2023-10-07 14:14:01+00:00,28.0,1.06,31.0,1.24,13.29,47.59359,-54.27349
2023-10-07 14:24:01+00:00,28.0,1.64,34.0,1.87,13.29,47.59359,-54.27349
2023-10-07 14:34:01+00:00,39.0,1.64,42.0,1.83,13.29,47.59359,-54.27349
2023-10-07 14:44:01+00:00,6.0,1.67,16.0,1.92,13.29,47.59359,-54.27349
2023-10-07 14:54:01+00:00,23.0,1.75,27.0,1.98,13.29,47.59359,-54.27349
2023-10-07 15:04:01+00:00,24.0,1.64,30.0,1.74,13.29,47.59359,-54.27349
2023-10-07 15:14:00+00:00,342.0,1.42,343.0,1.55,13.53,47.59359,-54.27349
2023-10-07 15:24:00+00:00,21.0,1.63,23.0,1.72,13.53,47.59359,-54.27349
2023-10-07 15:34:00+00:00,4.0,1.77,0.0,1.95,13.53,47.59359,-54.27349
2023-10-07 15:44:00+00:00,19.0,1.9,6.0,2.01,13.53,47.59359,-54.27349
2023-10-07 15:54:00+00:00,18.0,1.8,17.0,2.13,13.53,47.59359,-54.27349
2023-10-07 16:04:00+00:00,339.0,1.78,337.0,1.9,13.53,47.59359,-54.27349
2023-10-07 16:14:01+00:00,351.0,1.67,347.0,1.76,13.6,47.59359,-54.27349
2023-10-07 16:24:01+00:00,338.0,1.6,341.0,1.72,13.6,47.59359,-54.27349
2023-10-07 16:34:01+00:00,0.0,1.31,0.0,1.48,13.6,47.59359,-54.27349
2023-10-07 16:44:01+00:00,347.0,1.0,346.0,1.11,13.6,47.59359,-54.27349
2023-10-07 16:54:01+00:00,11.0,0.64,9.0,0.76,13.6,47.59359,-54.27349
2023-10-07 17:04:01+00:00,348.0,0.33,329.0,0.51,13.6,47.59359,-54.27349
2023-10-07 17:14:00+00:00,84.0,0.22,81.0,0.39,13.76,47.59359,-54.27349
2023-10-07 17:24:00+00:00,244.0,0.32,251.0,0.41,13.76,47.59359,-54.27349
2023-10-07 17:34:00+00:00,248.0,0.72,249.0,0.92,13.76,47.59359,-54.27349
2023-10-07 17:44:00+00:00,255.0,1.05,266.0,1.3,13.76,47.59359,-54.27349
2023-10-07 17:54:00+00:00,258.0,1.43,255.0,1.69,13.76,47.59359,-54.27349
2023-10-07 18:04:00+00:00,271.0,2.19,275.0,2.45,13.76,47.59359,-54.27349
2023-10-07 18:14:01+00:00,270.0,2.44,271.0,2.58,13.6,47.59359,-54.27349
2023-10-07 18:24:01+00:00,258.0,2.33,257.0,2.46,13.6,47.59359,-54.27349
2023-10-07 18:34:01+00:00,251.0,2.34,252.0,2.51,13.6,47.59359,-54.27349
2023-10-07 18:44:01+00:00,232.0,1.86,233.0,2.13,13.6,47.59359,-54.27349
2023-10-07 18:54:01+00:00,228.0,2.15,228.0,2.57,13.6,47.59359,-54.27349
2023-10-07 19:04:01+00:00,205.0,2.51,207.0,2.71,13.6,47.59359,-54.27349
2023-10-07 19:14:01+00:00,188.0,3.33,192.0,3.57,13.44,47.59359,-54.27349
2023-10-07 19:24:01+00:00,179.0,3.92,179.0,4.08,13.44,47.59359,-54.27349
2023-10-07 19:34:01+00:00,191.0,3.73,194.0,4.2,13.44,47.59359,-54.27349
2023-10-07 19:44:01+00:00,190.0,4.44,187.0,4.77,13.44,47.59359,-54.27349
2023-10-07 19:54:01+00:00,191.0,4.49,190.0,4.85,13.44,47.59359,-54.27349
2023-10-07 20:04:01+00:00,194.0,4.07,195.0,4.43,13.44,47.59359,-54.27349
2023-10-07 20:14:00+00:00,181.0,2.84,180.0,3.04,13.13,47.59359,-54.27349
2023-10-07 20:24:00+00:00,194.0,4.35,192.0,4.84,13.13,47.59359,-54.27349
2023-10-07 20:34:00+00:00,193.0,4.18,194.0,4.54,13.13,47.59359,-54.27349
2023-10-07 20:44:00+00:00,197.0,3.8,196.0,4.09,13.13,47.59359,-54.27349
2023-10-07 20:54:00+00:00,201.0,4.16,201.0,4.99,13.13,47.59359,-54.27349
2023-10-07 21:04:00+00:00,197.0,3.59,198.0,3.91,13.13,47.59359,-54.27349
2023-10-07 21:14:00+00:00,202.0,3.51,201.0,3.83,12.57,47.59359,-54.27349
2023-10-07 21:24:00+00:00,202.0,3.94,204.0,4.21,12.57,47.59359,-54.27349
2023-10-07 21:34:00+00:00,207.0,4.1,211.0,4.41,12.57,47.59359,-54.27349
2023-10-07 21:44:00+00:00,199.0,3.88,197.0,4.54,12.57,47.59359,-54.27349
2023-10-07 21:54:00+00:00,199.0,3.76,203.0,4.1,12.57,47.59359,-54.27349
2023-10-07 22:04:00+00:00,194.0,4.34,192.0,4.89,12.57,47.59359,-54.27349
2023-10-07 22:14:00+00:00,199.0,4.23,198.0,4.63,12.41,47.59359,-54.27349
2023-10-07 22:24:00+00:00,200.0,3.82,198.0,4.12,12.41,47.59359,-54.27349
2023-10-07 22:34:00+00:00,198.0,3.89,202.0,4.43,12.41,47.59359,-54.27349
2023-10-07 22:44:00+00:00,206.0,3.94,209.0,4.17,12.41,47.59359,-54.27349
2023-10-07 22:54:00+00:00,189.0,3.23,194.0,3.5,12.41,47.59359,-54.27349
2023-10-07 23:04:00+00:00,187.0,3.47,188.0,3.79,12.41,47.59359,-54.27349
2023-10-07 23:14:01+00:00,196.0,3.66,198.0,4.18,12.41,47.59359,-54.27349
2023-10-07 23:24:01+00:00,197.0,3.3,206.0,3.61,12.41,47.59359,-54.27349
2023-10-07 23:34:01+00:00,193.0,3.13,198.0,3.39,12.41,47.59359,-54.27349
2023-10-07 23:44:01+00:00,201.0,3.01,203.0,3.19,12.41,47.59359,-54.27349
2023-10-07 23:54:01+00:00,227.0,2.6,232.0,3.03,12.41,47.59359,-54.27349
